EW1442 Lusby MD US current weather conditions

sailwx.info

Wind from 309 at 3 knots

Air temperature 12.8° C
Dewpoint 3.2° C

Last reported at 2019-Dec-15 20:02 UTC.
Time now 2019-Dec-15 20:47 UTC

Location: N 38°22' W 076°24'.
View on Google Maps.

See reports from other nearby stations

  
Tides and Currents Weather Stations Pressure Air Temp Water Temp Dewpoint Dewpoint Depression Visibility Wind Speed Wind Dir Waves Ship Positions
date/time (UTC)wind fromknots sea level pressurealtimeterstation pressurevisibilityair tempwater tempwave heightnotes
2019-Dec-15 20:02 309 3 12.8
2019-Dec-15 19:52 334 2 12.8
2019-Dec-15 19:47 303 2 12.8
2019-Dec-15 19:42 316 1 12.8
2019-Dec-15 19:37 291 3 12.8
2019-Dec-15 19:32 011 3 12.8
2019-Dec-15 19:27 315 2 12.8
2019-Dec-15 19:22 318 3 12.8
2019-Dec-15 19:17 333 3 12.8
2019-Dec-15 19:12 351 2 12.2
2019-Dec-15 19:07 309 3 12.2
2019-Dec-15 19:02 319 3 12.2
2019-Dec-15 18:57 263 4 12.2
2019-Dec-15 18:52 301 5 12.2
2019-Dec-15 18:47 356 4 12.2
2019-Dec-15 18:42 308 3 12.2
2019-Dec-15 18:37 293 2 12.2
2019-Dec-15 18:32 292 2 12.2
2019-Dec-15 18:27 282 6 12.2
2019-Dec-15 18:22 330 6 12.2
2019-Dec-15 18:17 292 5 12.2
2019-Dec-15 18:12 343 4 12.2
2019-Dec-15 18:07 345 4 12.2
2019-Dec-15 18:02 332 4 12.2
2019-Dec-15 17:57 351 3 11.7
2019-Dec-15 17:52 315 5 11.7
2019-Dec-15 17:47 322 5 11.7
2019-Dec-15 17:42 326 3 11.7
2019-Dec-15 17:37 298 3 11.7
2019-Dec-15 17:32 341 4 11.7
2019-Dec-15 17:27 317 3 11.7
2019-Dec-15 17:22 276 3 11.7
2019-Dec-15 17:17 269 3 11.7
2019-Dec-15 17:12 257 3 11.7
2019-Dec-15 17:07 11.7
2019-Dec-15 17:02 294 4 11.1
2019-Dec-15 16:57 350 4 11.1
2019-Dec-15 16:52 255 5 11.1
2019-Dec-15 16:47 305 6 11.1
2019-Dec-15 16:42 310 6 11.1
2019-Dec-15 16:37 283 6 10.6
2019-Dec-15 16:32 277 6 10.6
2019-Dec-15 16:27 274 4 10.6
2019-Dec-15 16:22 352 4 10.6
2019-Dec-15 16:17 270 4 10.6
2019-Dec-15 16:12 307 4 10.0
2019-Dec-15 16:07 303 5 10.0
2019-Dec-15 16:02 280 5 10.0
2019-Dec-15 15:57 251 5 10.0
2019-Dec-15 15:52 297 6 10.0
2019-Dec-15 15:47 342 5 10.0
2019-Dec-15 15:42 278 4 10.0
2019-Dec-15 15:37 309 5 9.4
2019-Dec-15 15:32 283 6 9.4
2019-Dec-15 15:27 318 6 9.4
2019-Dec-15 15:22 273 5 9.4
2019-Dec-15 15:17 295 4 9.4
2019-Dec-15 15:12 307 3 9.4
2019-Dec-15 15:07 316 3 9.4
2019-Dec-15 15:02 320 4 9.4
2019-Dec-15 14:57 295 5 9.4
2019-Dec-15 14:52 297 5 8.9
2019-Dec-15 14:47 315 2 8.9
2019-Dec-15 14:42 299 3 8.9
2019-Dec-15 14:37 271 4 8.3
2019-Dec-15 14:32 292 3 8.3
2019-Dec-15 14:27 273 3 8.3
2019-Dec-15 14:22 301 3 8.3
2019-Dec-15 14:17 290 4 7.8
2019-Dec-15 14:12 301 4 7.8
2019-Dec-15 14:07 275 4 7.8
2019-Dec-15 14:02 292 4 7.8
2019-Dec-15 13:57 283 3 7.8
2019-Dec-15 13:52 288 2 7.2
2019-Dec-15 13:47 246 3 7.2
2019-Dec-15 13:42 268 3 7.2
2019-Dec-15 13:37 301 3 7.2
2019-Dec-15 13:32 264 4 6.7
2019-Dec-15 13:27 278 3 6.7
2019-Dec-15 13:22 285 2 6.7
2019-Dec-15 13:17 281 2 6.7
2019-Dec-15 13:12 272 2 6.1
2019-Dec-15 13:07 306 3 6.1
2019-Dec-15 13:02 281 4 6.1
2019-Dec-15 12:57 279 4 6.1
2019-Dec-15 12:52 268 4 6.1
2019-Dec-15 12:47 261 3 5.6
2019-Dec-15 12:42 270 2 5.6
2019-Dec-15 12:37 273 2 5.6
2019-Dec-15 12:32 272 2 5.6
2019-Dec-15 12:27 294 2 5.6
2019-Dec-15 12:22 294 1 5.6
2019-Dec-15 12:17 286 0 5.6
2019-Dec-15 12:12 254 0 5.6
2019-Dec-15 12:07 249 0 5.6
2019-Dec-15 12:02 312 0 5.6
2019-Dec-15 11:57 241 0 5.6
2019-Dec-15 11:52 302 1 5.6
2019-Dec-15 11:47 245 1 5.6
2019-Dec-15 11:42 243 1 5.6
2019-Dec-15 11:37 255 0 5.6
2019-Dec-15 11:32 275 0 5.6
2019-Dec-15 11:27 253 0 5.6
2019-Dec-15 11:22 271 5.6
2019-Dec-15 11:17 280 5.6
2019-Dec-15 11:12 309 5.6
2019-Dec-15 11:07 280 6.1
2019-Dec-15 11:02 284 0 6.1
2019-Dec-15 10:57 295 1 6.1
2019-Dec-15 10:52 287 1 6.1
2019-Dec-15 10:47 287 1 6.1
2019-Dec-15 10:42 281 0 6.1
2019-Dec-15 10:37 315 0 6.1
2019-Dec-15 10:32 281 1 6.1
2019-Dec-15 10:27 293 1 6.1
2019-Dec-15 10:22 248 1 6.1
2019-Dec-15 10:17 303 1 6.1
2019-Dec-15 10:12 311 1 6.1
2019-Dec-15 10:07 334 1 6.1
2019-Dec-15 10:02 304 2 6.1
2019-Dec-15 09:57 284 1 6.1
2019-Dec-15 09:52 299 1 6.1
2019-Dec-15 09:47 337 1 6.1
2019-Dec-15 09:42 290 1 6.1
2019-Dec-15 09:37 315 2 6.1
2019-Dec-15 09:32 276 2 6.7
2019-Dec-15 09:27 286 2 6.7
2019-Dec-15 09:22 289 2 6.7
2019-Dec-15 09:17 307 1 6.7
2019-Dec-15 09:12 301 2 6.7
2019-Dec-15 09:07 325 2 6.7
2019-Dec-15 09:02 293 3 6.7
2019-Dec-15 08:57 295 2 6.7
2019-Dec-15 08:52 291 2 6.7
2019-Dec-15 08:47 280 2 6.7
2019-Dec-15 08:42 304 2 6.7
2019-Dec-15 08:37 316 2 6.7
2019-Dec-15 08:32 336 2 6.7
2019-Dec-15 08:27 287 1 6.7
2019-Dec-15 08:22 289 1 6.7
2019-Dec-15 08:17 268 1 6.7
2019-Dec-15 08:12 297 1 6.7
2019-Dec-15 08:07 292 1 6.7
2019-Dec-15 08:02 284 0 6.7
2019-Dec-15 07:57 287 0 6.7
2019-Dec-15 07:52 280 1 6.7
2019-Dec-15 07:47 303 1 6.7
2019-Dec-15 07:42 288 1 6.7
2019-Dec-15 07:37 276 1 6.7
2019-Dec-15 07:32 296 0 6.7
2019-Dec-15 07:27 322 0 6.7
2019-Dec-15 07:22 325 1 6.1
2019-Dec-15 07:17 355 1 6.1
2019-Dec-15 07:12 309 1 6.1
2019-Dec-15 07:07 290 0 6.1
2019-Dec-15 07:02 311 0 6.1
2019-Dec-15 06:57 297 0 6.1
2019-Dec-15 06:52 267 0 6.1
2019-Dec-15 06:47 332 0 6.1
2019-Dec-15 06:42 322 0 6.1
2019-Dec-15 06:37 309 1 6.7
2019-Dec-15 06:32 288 1 6.1
2019-Dec-15 06:27 324 1 6.1
2019-Dec-15 06:22 313 1 6.1
2019-Dec-15 06:17 347 0 6.1
2019-Dec-15 06:12 296 1 6.7
2019-Dec-15 06:07 301 1 6.7
2019-Dec-15 06:02 297 0 6.7
2019-Dec-15 05:57 314 1 6.7
2019-Dec-15 05:52 295 1 6.7
2019-Dec-15 05:47 292 1 6.7
2019-Dec-15 05:42 310 1 6.7
2019-Dec-15 05:37 279 1 6.7
2019-Dec-15 05:32 288 1 6.7
2019-Dec-15 05:27 291 1 6.7
2019-Dec-15 05:22 314 1 6.7
2019-Dec-15 05:17 310 1 7.2
2019-Dec-15 05:12 305 1 7.2
2019-Dec-15 05:07 295 1 7.2
2019-Dec-15 05:02 326 1 7.2
2019-Dec-15 04:57 336 2 7.2
2019-Dec-15 04:52 300 2 7.2
2019-Dec-15 04:47 355 1 7.2
2019-Dec-15 04:42 328 1 7.2
2019-Dec-15 04:37 297 1 7.2
2019-Dec-15 04:32 317 1 7.2
2019-Dec-15 04:27 306 2 7.2
2019-Dec-15 04:22 338 2 7.2
2019-Dec-15 04:17 303 3 7.2
2019-Dec-15 04:12 332 2 7.2
2019-Dec-15 04:02 298 3 7.2
2019-Dec-15 03:57 333 3 7.8
2019-Dec-15 03:52 345 2 7.8
2019-Dec-15 03:47 303 3 7.8
2019-Dec-15 03:42 304 3 7.8
2019-Dec-15 03:37 346 4 7.8
2019-Dec-15 03:32 358 4 7.8
2019-Dec-15 03:27 322 5 7.8
2019-Dec-15 03:22 321 4 7.8
2019-Dec-15 03:17 355 3 7.8
2019-Dec-15 03:12 004 3 7.8
2019-Dec-15 03:07 333 3 7.8
2019-Dec-15 03:02 346 4 7.8
2019-Dec-15 02:57 327 5 8.3
2019-Dec-15 02:52 342 5 8.3
2019-Dec-15 02:47 342 6 8.3
2019-Dec-15 02:42 324 6 8.3
2019-Dec-15 02:37 341 6 8.3
2019-Dec-15 02:32 352 6 8.3
2019-Dec-15 02:27 351 5 8.3
2019-Dec-15 02:22 352 2 8.3
2019-Dec-15 02:17 348 2 8.3
2019-Dec-15 02:12 354 4 8.3
2019-Dec-15 02:07 338 4 8.3
2019-Dec-15 02:02 011 5 8.3
2019-Dec-15 01:57 348 5 8.9
2019-Dec-15 01:52 342 6 8.9
2019-Dec-15 01:47 354 6 8.9
2019-Dec-15 01:42 351 6 8.9
2019-Dec-15 01:37 350 6 8.9
2019-Dec-15 01:32 017 6 8.9
2019-Dec-15 01:27 357 7 9.4
2019-Dec-15 01:22 350 8 9.4
2019-Dec-15 01:17 006 7 9.4
2019-Dec-15 01:12 021 7 9.4
2019-Dec-15 01:07 003 6 9.4
2019-Dec-15 01:02 340 5 9.4
2019-Dec-15 00:57 340 5 9.4
2019-Dec-15 00:52 345 6 9.4
2019-Dec-15 00:47 359 5 9.4
2019-Dec-15 00:42 349 6 9.4
2019-Dec-15 00:37 326 5 9.4
2019-Dec-15 00:32 303 6 9.4
2019-Dec-15 00:27 338 6 9.4
2019-Dec-15 00:22 355 4 9.4
2019-Dec-15 00:17 351 3 9.4
2019-Dec-15 00:12 315 4 9.4
2019-Dec-15 00:07 039 5 9.4
2019-Dec-15 00:02 351 4 10.0
2019-Dec-14 23:57 354 4 10.0
2019-Dec-14 23:52 009 4 10.0
2019-Dec-14 23:47 330 4 10.0
2019-Dec-14 23:42 026 3 10.0
2019-Dec-14 23:37 336 2 10.0
2019-Dec-14 23:32 028 1 10.0
2019-Dec-14 23:27 032 10.0
2019-Dec-14 23:22 275 10.0
2019-Dec-14 23:17 266 9.4
2019-Dec-14 23:12 264 9.4
2019-Dec-14 23:07 264 9.4
2019-Dec-14 23:02 264 10.0
2019-Dec-14 22:57 264 10.0
2019-Dec-14 22:52 267 10.0
2019-Dec-14 22:47 263 10.0
2019-Dec-14 22:42 286 10.0
2019-Dec-14 22:37 286 10.0
2019-Dec-14 22:32 286 10.0
2019-Dec-14 22:27 280 10.0
2019-Dec-14 22:22 256 0 10.0
2019-Dec-14 22:17 287 0 9.4
2019-Dec-14 22:12 264 0 9.4
2019-Dec-14 22:07 294 0 9.4
2019-Dec-14 22:02 271 9.4
2019-Dec-14 21:57 255 0 9.4
2019-Dec-14 21:52 268 0 9.4
2019-Dec-14 21:47 263 9.4
2019-Dec-14 21:42 282 0 9.4
2019-Dec-14 21:37 290 0 9.4
2019-Dec-14 21:32 313 0 9.4
2019-Dec-14 21:27 297 0 9.4
2019-Dec-14 21:22 290 0 9.4
2019-Dec-14 21:07 304 0 9.4
2019-Dec-14 21:02 282 0 8.9
2019-Dec-14 20:57 295 0 8.9
2019-Dec-14 20:52 322 1 8.9
2019-Dec-14 20:47 322 1 8.9
2019-Dec-14 20:42 297 1 8.9
2019-Dec-14 20:37 300 1 8.9
2019-Dec-14 20:32 312 2 8.9
2019-Dec-14 20:27 299 3 8.9
2019-Dec-14 20:22 282 3 8.9
2019-Dec-14 20:17 313 3 8.9
2019-Dec-14 20:12 288 3 8.9
2019-Dec-14 20:07 299 2 8.9
2019-Dec-14 20:02 289 1 8.9
2019-Dec-14 19:57 342 2 8.9
2019-Dec-14 19:52 328 4 8.9
2019-Dec-14 19:47 272 5 8.9
2019-Dec-14 19:42 312 3 8.9
2019-Dec-14 19:37 298 3 8.9
2019-Dec-14 19:32 270 2 8.9
2019-Dec-14 19:27 299 3 8.9
2019-Dec-14 19:22 287 3 8.9
2019-Dec-14 19:17 283 3 8.9
2019-Dec-14 19:12 304 4 8.9
2019-Dec-14 19:07 280 5 8.9
2019-Dec-14 19:02 355 6 8.9
2019-Dec-14 18:57 288 5 8.9
2019-Dec-14 18:52 306 4 8.9
2019-Dec-14 18:47 279 4 8.9
2019-Dec-14 18:42 304 4 8.9
2019-Dec-14 18:37 310 4 8.9
2019-Dec-14 18:32 288 3 8.9
2019-Dec-14 18:27 286 4 8.3
2019-Dec-14 18:22 340 4 8.3
2019-Dec-14 18:17 259 3 8.9
2019-Dec-14 18:12 278 3 8.9
2019-Dec-14 18:07 307 4 8.9
2019-Dec-14 18:02 311 4 8.9
2019-Dec-14 17:57 285 2 8.9
2019-Dec-14 17:52 274 2 8.9
2019-Dec-14 17:47 253 3 8.9
2019-Dec-14 17:42 297 2 8.9
2019-Dec-14 17:37 350 3 9.4
2019-Dec-14 17:32 293 5 9.4
2019-Dec-14 17:27 289 4 9.4
2019-Dec-14 17:22 295 4 9.4
2019-Dec-14 17:17 278 3 9.4
2019-Dec-14 17:12 289 3 9.4
2019-Dec-14 17:07 226 2 10.0
2019-Dec-14 17:02 236 0 9.4
2019-Dec-14 16:57 237 9.4
2019-Dec-14 16:52 254 9.4
2019-Dec-14 16:47 261 0 9.4
2019-Dec-14 16:42 233 0 9.4
2019-Dec-14 16:37 274 9.4
2019-Dec-14 16:32 224 9.4
2019-Dec-14 16:27 232 9.4
2019-Dec-14 16:22 234 9.4
2019-Dec-14 16:17 266 9.4
2019-Dec-14 16:12 240 9.4
2019-Dec-14 16:07 220 9.4
2019-Dec-14 16:02 243 9.4
2019-Dec-14 15:57 236 9.4
2019-Dec-14 15:52 242 8.9
2019-Dec-14 15:47 246 8.9
2019-Dec-14 15:42 220 8.9
2019-Dec-14 15:37 209 8.9
2019-Dec-14 15:32 230 8.9
2019-Dec-14 15:27 238 8.9
2019-Dec-14 15:22 239 8.9
2019-Dec-14 15:17 239 8.9
2019-Dec-14 15:12 249 8.9
2019-Dec-14 15:07 252 8.9
2019-Dec-14 15:02 219 8.9
2019-Dec-14 14:57 219 8.9
2019-Dec-14 14:52 219 8.9
2019-Dec-14 14:47 219 8.9
2019-Dec-14 14:42 219 8.9
2019-Dec-14 14:37 219 8.9
2019-Dec-14 14:32 219 8.9
2019-Dec-14 14:27 243 8.9
2019-Dec-14 14:22 206 8.9
2019-Dec-14 14:17 164 8.9
2019-Dec-14 14:12 164 8.9
2019-Dec-14 14:07 164 8.9
2019-Dec-14 14:02 163 8.9
2019-Dec-14 13:57 163 8.9
2019-Dec-14 13:52 164 8.9
2019-Dec-14 13:47 164 8.9
2019-Dec-14 13:42 164 8.9
2019-Dec-14 13:37 164 8.9
2019-Dec-14 13:32 167 8.3
2019-Dec-14 13:27 167 8.3
2019-Dec-14 13:22 167 8.3
2019-Dec-14 13:17 167 8.3
2019-Dec-14 13:12 167 8.3
2019-Dec-14 13:07 167 8.3
2019-Dec-14 13:02 167 8.3
2019-Dec-14 12:57 097 8.3
2019-Dec-14 12:52 347 8.3
2019-Dec-14 12:47 328 8.3
2019-Dec-14 12:42 328 8.3
2019-Dec-14 12:37 328 8.3
2019-Dec-14 12:32 328 8.3
2019-Dec-14 12:27 328 8.3
2019-Dec-14 12:22 328 8.3
2019-Dec-14 12:17 328 8.3
2019-Dec-14 12:12 349 8.3
2019-Dec-14 12:07 350 8.3
2019-Dec-14 12:02 350 8.3
2019-Dec-14 11:57 308 8.3
2019-Dec-14 11:52 338 8.9
2019-Dec-14 11:47 275 9.4
2019-Dec-14 11:42 350 9.4
2019-Dec-14 11:37 024 9.4
2019-Dec-14 11:32 044 9.4
2019-Dec-14 11:27 044 9.4
2019-Dec-14 11:22 042 9.4
2019-Dec-14 10:57 003 9.4
2019-Dec-14 10:52 045 9.4
2019-Dec-14 10:47 022 9.4
2019-Dec-14 10:42 016 9.4
2019-Dec-14 10:37 013 9.4
2019-Dec-14 10:32 045 9.4
2019-Dec-14 10:27 050 9.4
2019-Dec-14 10:22 030 9.4
2019-Dec-14 10:17 061 9.4
2019-Dec-14 10:12 047 9.4
2019-Dec-14 10:07 062 9.4
2019-Dec-14 10:02 089 9.4
2019-Dec-14 09:57 026 9.4
2019-Dec-14 09:52 051 9.4
2019-Dec-14 09:47 051 9.4
2019-Dec-14 09:42 051 9.4
2019-Dec-14 09:37 353 0 10.0
2019-Dec-14 09:32 014 0 9.4
2019-Dec-14 09:27 045 0 9.4
2019-Dec-14 09:22 024 10.0
2019-Dec-14 09:02 020 10.0
2019-Dec-14 08:52 018 0 9.4
2019-Dec-14 08:47 077 0 10.0
2019-Dec-14 08:42 042 0 10.0
2019-Dec-14 08:37 023 0 10.0
2019-Dec-14 08:32 045 10.0
2019-Dec-14 08:27 053 10.0
2019-Dec-14 08:22 049 9.4
2019-Dec-14 08:17 357 9.4
2019-Dec-14 08:12 357 9.4
2019-Dec-14 08:07 009 9.4
2019-Dec-14 08:02 007 9.4
2019-Dec-14 07:57 005 0 9.4
2019-Dec-14 07:52 309 0 9.4
2019-Dec-14 07:47 006 9.4
2019-Dec-14 07:42 007 9.4
2019-Dec-14 07:37 030 0 9.4
2019-Dec-14 07:32 353 0 9.4
2019-Dec-14 07:27 355 9.4
2019-Dec-14 07:22 020 9.4
2019-Dec-14 07:17 039 0 9.4
2019-Dec-14 07:12 086 0 9.4
2019-Dec-14 07:07 052 0 9.4
2019-Dec-14 07:02 070 9.4
2019-Dec-14 06:57 032 9.4
2019-Dec-14 06:52 029 9.4
2019-Dec-14 06:47 356 9.4
2019-Dec-14 06:42 027 9.4
2019-Dec-14 06:37 026 9.4
2019-Dec-14 06:32 032 9.4
2019-Dec-14 06:27 355 9.4
2019-Dec-14 06:22 039 9.4
2019-Dec-14 06:17 023 9.4
2019-Dec-14 06:12 035 9.4
2019-Dec-14 06:07 028 9.4
2019-Dec-14 06:02 031 9.4
2019-Dec-14 05:57 014 9.4
2019-Dec-14 05:52 027 9.4
2019-Dec-14 05:47 052 9.4
2019-Dec-14 05:42 022 9.4
2019-Dec-14 05:37 019 9.4
2019-Dec-14 05:32 016 9.4
2019-Dec-14 05:27 011 9.4
2019-Dec-14 05:22 001 9.4
2019-Dec-14 05:17 001 9.4
2019-Dec-14 05:12 034 9.4
2019-Dec-14 05:07 001 8.9
2019-Dec-14 05:02 326 8.9
2019-Dec-14 04:57 006 8.9
2019-Dec-14 04:52 353 8.3
2019-Dec-14 04:47 359 8.3
2019-Dec-14 04:42 290 8.9
2019-Dec-14 04:37 335 9.4
2019-Dec-14 04:32 007 8.9
2019-Dec-14 04:27 340 8.9
2019-Dec-14 04:22 005 8.9
2019-Dec-14 04:17 359 8.9
2019-Dec-14 04:12 349 8.9
2019-Dec-14 04:07 046 8.9
2019-Dec-14 04:02 050 8.9
2019-Dec-14 03:57 355 8.9
2019-Dec-14 03:52 004 8.9
2019-Dec-14 03:47 338 8.9
2019-Dec-14 03:42 322 0 8.9
2019-Dec-14 03:37 336 0 8.9
2019-Dec-14 03:32 336 0 8.9
2019-Dec-14 03:27 008 1 8.9
2019-Dec-14 03:22 359 2 8.9
2019-Dec-14 03:17 337 1 8.9
2019-Dec-14 03:12 351 0 8.9
2019-Dec-14 03:07 326 9.4
2019-Dec-14 03:02 338 9.4
2019-Dec-14 02:57 359 9.4
2019-Dec-14 02:52 009 9.4
2019-Dec-14 02:47 061 8.9
2019-Dec-14 02:42 022 8.9
2019-Dec-14 02:37 068 8.9
2019-Dec-14 02:32 053 8.9
2019-Dec-14 02:27 045 8.9
2019-Dec-14 02:22 066 8.9
2019-Dec-14 02:17 015 8.9
2019-Dec-14 02:12 032 8.9
2019-Dec-14 02:07 030 8.9
2019-Dec-14 02:02 041 8.9
2019-Dec-14 01:57 019 8.9
2019-Dec-14 01:52 034 8.9
2019-Dec-14 01:47 044 8.9
2019-Dec-14 01:42 042 8.9
2019-Dec-14 01:37 043 8.9
2019-Dec-14 01:32 018 8.3
2019-Dec-14 01:27 039 8.3
2019-Dec-14 01:22 026 8.3
2019-Dec-14 01:17 005 8.3
2019-Dec-14 01:12 053 8.3
2019-Dec-14 01:07 053 8.3
2019-Dec-14 01:02 010 8.3
2019-Dec-14 00:57 024 8.3
2019-Dec-14 00:52 043 8.3
2019-Dec-14 00:47 038 8.3
2019-Dec-14 00:42 054 8.3
2019-Dec-14 00:37 066 8.3
2019-Dec-14 00:32 072 8.3
2019-Dec-14 00:27 046 8.3
2019-Dec-14 00:22 083 8.3
2019-Dec-14 00:17 059 8.3
2019-Dec-14 00:12 061 8.9
2019-Dec-14 00:07 060 8.9
2019-Dec-14 00:02 061 8.9
2019-Dec-13 23:57 057 0 8.9
2019-Dec-13 23:52 060 9.4
2019-Dec-13 23:47 058 9.4
2019-Dec-13 23:42 059 8.9
2019-Dec-13 23:37 064 8.9
2019-Dec-13 23:32 012 8.9
2019-Dec-13 23:27 039 8.9
2019-Dec-13 23:22 063 8.9
2019-Dec-13 23:17 026 8.9
2019-Dec-13 23:12 015 8.9
2019-Dec-13 23:07 043 8.3
2019-Dec-13 23:02 043 8.3
2019-Dec-13 22:57 058 8.3
2019-Dec-13 22:52 041 8.3
2019-Dec-13 22:47 066 8.3
2019-Dec-13 22:42 053 8.3
2019-Dec-13 22:37 036 8.3
2019-Dec-13 22:32 042 8.3
2019-Dec-13 22:27 050 8.3
2019-Dec-13 22:22 064 8.3
2019-Dec-13 22:17 051 7.8
2019-Dec-13 22:12 066 7.8
2019-Dec-13 22:07 036 7.2
2019-Dec-13 22:02 045 7.2
2019-Dec-13 21:57 062 7.2
2019-Dec-13 21:52 048 7.2
2019-Dec-13 21:47 029 7.2
2019-Dec-13 21:42 041 7.2
2019-Dec-13 21:37 028 7.2
2019-Dec-13 21:32 025 6.7
2019-Dec-13 21:27 020 6.7
2019-Dec-13 21:22 070 6.7
2019-Dec-13 21:17 072 6.7
2019-Dec-13 21:12 044 6.1
2019-Dec-13 21:07 069 6.1
2019-Dec-13 21:02 045 6.1
2019-Dec-13 20:57 029 6.1
2019-Dec-13 20:52 077 6.1
2019-Dec-13 20:47 074 6.1
2019-Dec-13 20:42 047 6.1
2019-Dec-13 20:37 051 6.1
2019-Dec-13 20:32 042 6.1
2019-Dec-13 20:27 063 5.6
2019-Dec-13 20:22 047 5.6
2019-Dec-13 20:17 055 0 5.6
2019-Dec-13 20:12 063 1 5.6
2019-Dec-13 20:07 044 1 5.6
2019-Dec-13 20:02 052 5.6